#timestamp,LO_Frequency,Hit,StdDev 
1514995215.6,286046991.1,P
1514995235.4,286046990.2,N
1514995255.2,286046994.7,N
1514995275.1,286046991.7,N
1514995276.0,286046991.7,N
1514995295.8,286046993.6,N
1514995315.6,286046995.7,N
1514995335.5,286046994.0,N
1514995355.3,286046995.3,N
1514995375.1,286046995.6,N
1514995395.9,286046995.5,N
1514995415.7,286046993.6,N
1514995435.5,286046994.3,N
1514995455.3,286046995.6,N
1514995475.2,286046995.3,N
1514995495.0,286046997.3,N
1514995495.9,286046997.3,N
1514995515.7,286046999.6,N
1514995535.6,286047000.1,N
1514995555.4,286047001.8,N
1514995575.2,286047003.2,N
1514995595.1,286047004.5,N
1514995596.0,286047004.5,N
1514995615.8,286047006.4,N
1514995635.6,286047011.6,N
1514995655.5,286047013.5,N
1514995675.3,286047012.9,N
1514995695.1,286047020.3,Y
1514995715.9,286047020.9,P
1514995735.7,286047017.3,N
1514995755.5,286047019.6,N
1514995775.4,286047017.7,N
1514995795.2,286047017.6,N
1514995815.0,286047017.8,N
1514995815.9,286047017.8,N
1514995835.8,286047023.1,Y
1514995855.6,286047011.5,P
1514995875.4,286047013.8,P
1514995895.3,286047010.0,P
1514995915.1,286047009.3,Y
1514995916.0,286047009.3,P
1514995935.8,286047002.4,N
1514995955.7,286047005.8,N
1514995975.5,286047001.9,N
1514995995.3,286047001.4,N
1514996015.2,286047003.3,N
1514996035.9,286047003.2,N
1514996055.7,286047003.3,N
1514996075.5,286047003.1,N
1514996095.4,286047005.5,N
1514996115.2,286047005.8,N
1514996135.0,286047002.9,N
1514996135.9,286047002.9,N
1514996155.8,286047001.7,N
1514996175.6,286046998.6,N
1514996195.4,286047002.4,N
1514996215.3,286046999.9,N
1514996235.1,286047000.9,N
1514996236.0,286047000.9,N
1514996255.8,286046998.8,N
1514996275.7,286046998.4,N
1514996295.5,286046997.9,N
1514996315.3,286046998.7,N
1514996335.1,286047000.6,N
1514996355.9,286046999.1,N
1514996375.7,286046999.1,N
1514996395.5,286047001.0,N
1514996415.4,286047004.5,N
1514996435.2,286047006.2,N
1514996455.0,286047005.5,N
1514996455.9,286047005.5,N
1514996475.8,286047002.3,N
1514996495.6,286046997.4,N
1514996515.4,286046996.6,N
1514996535.3,286046998.7,N
1514996555.1,286046999.5,N
1514996556.0,286046999.5,N
1514996575.8,286046997.7,N
1514996595.7,286046996.9,N
1514996615.5,286046993.3,N
1514996635.3,286046997.5,N
1514996655.1,286046997.4,N
1514996675.9,286046995.4,N
1514996695.7,286046992.9,N
1514996715.5,286046991.4,N
1514996735.4,286046991.2,N
1514996755.2,286046988.8,Y
1514996775.0,286046993.7,P
1514996776.0,286046993.7,N
1514996795.8,286046995.5,N
1514996815.6,286046993.6,Y
1514996835.5,286047001.2,P
1514996855.3,286047002.0,N
1514996875.1,286046998.6,N
1514996895.8,286046998.3,N
1514996915.7,286046998.0,N
1514996935.5,286046995.3,N
1514996955.3,286046996.8,N
1514996975.2,286046995.9,N
1514996995.9,286046993.3,N
1514997015.7,286046995.2,N
1514997035.6,286047001.2,N
1514997055.4,286047000.8,N
1514997075.2,286046996.1,N
1514997095.0,286046992.8,N
1514997096.0,286046992.8,N
1514997115.8,286046992.8,N
1514997135.6,286046991.1,N
1514997155.5,286046987.6,Y
1514997175.3,286046991.6,P
1514997195.1,286046992.1,P
1514997215.8,286046995.2,N
1514997235.7,286046996.8,N
1514997255.5,286046995.5,N
1514997275.3,286046995.2,N
1514997295.2,286046996.5,N
1514997315.9,286046998.3,N
1514997335.7,286046997.2,N
1514997355.6,286046998.4,N
1514997375.4,286046995.4,N
1514997395.2,286046996.2,N
1514997415.1,286046995.9,N
1514997416.0,286046995.9,N
1514997435.8,286046994.5,Y
1514997455.6,286046999.4,P
1514997475.5,286046995.2,N
1514997495.3,286046996.8,N
1514997515.1,286046993.7,Y
1514997535.9,286046997.3,P
1514997555.7,286046997.2,P
1514997575.5,286046997.0,P
1514997595.4,286046997.5,Y
1514997615.2,286046999.6,P
1514997635.0,286046998.6,N
1514997635.9,286046998.6,N
1514997655.8,286046996.5,Y
1514997675.6,286046994.2,P
1514997695.4,286046990.9,P
1514997715.3,286046994.3,N
1514997735.1,286046990.5,Y
1514997736.0,286046990.5,P
1514997755.8,286046997.0,N
1514997775.7,286046995.7,N
1514997795.5,286046992.2,Y
1514997815.3,286046997.0,P
1514997835.2,286046997.4,N
1514997855.9,286046991.9,P
1514997875.7,286046991.7,Y
1514997895.6,286046996.9,P
1514997915.4,286046995.7,P
1514997935.2,286046991.8,P
1514997955.1,286046997.5,N
1514997956.0,286046997.5,N
1514997975.8,286046995.0,N
1514997995.6,286046994.1,Y
1514998015.5,286046995.0,P
1514998035.3,286046997.1,P
1514998055.1,286046999.3,N
1514998075.9,286046998.3,N
1514998095.7,286046997.0,N
1514998115.5,286047001.0,N
1514998135.4,286047002.4,N
1514998155.2,286047001.2,N
1514998175.0,286046999.9,N
1514998175.9,286046999.9,N
1514998195.7,286047002.6,N
1514998215.6,286047005.7,N
1514998235.4,286047008.4,N
1514998255.2,286047010.5,N
1514998275.1,286047012.3,N
1514998276.0,286047012.3,N
1514998295.8,286047016.9,Y
1514998315.6,286047017.6,P
1514998335.5,286047016.9,N
1514998355.3,286047017.0,N
1514998375.1,286047018.8,N
1514998395.9,286047017.1,N
1514998415.7,286047014.6,N
1514998435.5,286047017.5,Y
1514998455.4,286047003.2,P
1514998475.2,286047007.0,N
1514998495.0,286047006.4,N
1514998495.9,286047006.4,N
1514998515.8,286047009.2,N
1514998535.6,286047006.5,N
1514998555.4,286047010.3,Y
1514998575.3,286047003.5,P
1514998595.1,286047008.7,P
1514998596.0,286047008.7,P
1514998615.8,286047011.6,Y
1514998635.7,286047007.2,P
1514998655.5,286047004.6,P
1514998675.3,286047007.6,P
1514998695.2,286047004.6,Y
1514998715.9,286046999.0,P
1514998735.7,286047002.3,N
1514998755.6,286047003.3,N
1514998775.4,286047010.8,Y
1514998795.2,286047005.7,P
